Date,TemperatureHighF,TemperatureAvgF,TemperatureLowF,DewpointHighF,DewpointAvgF,DewpointLowF,HumidityHigh,HumidityAvg,HumidityLow,PressureMaxIn,PressureMinIn,WindSpeedMaxMPH,WindSpeedAvgMPH,GustSpeedMaxMPH,PrecipitationSumIn
2013-3-1,33.9,29.7,23.9,28.6,25.9,20.0,96,86,77,30.17,30.01,9,2,10,0.02
2013-3-2,33.5,28.0,23.1,25.5,22.4,18.8,90,79,66,30.17,30.12,13,3,15,0.00
2013-3-3,31.6,26.0,16.4,24.4,19.8,13.4,93,78,53,30.15,30.09,14,2,14,0.04
2013-3-4,37.2,27.3,15.3,28.6,21.3,13.2,94,79,60,30.18,30.05,13,2,15,0.01
2013-3-5,32.4,30.2,27.6,29.5,27.9,25.8,96,92,82,30.04,29.78,14,4,19,0.04
2013-3-6,35.4,31.7,27.4,31.7,29.0,25.2,100,90,80,30.29,29.93,13,4,15,0.21
2013-3-7,36.7,32.0,23.0,30.4,27.1,21.3,94,83,65,30.45,30.28,11,2,14,0.29
2013-3-8,41.2,30.0,18.0,29.2,23.5,16.6,97,78,57,30.54,30.38,10,2,12,0.10
2013-3-9,43.4,36.4,27.6,35.4,30.1,22.3,85,78,65,30.38,29.92,18,5,21,0.01
2013-3-10,57.8,47.4,39.0,49.4,42.4,34.9,95,83,70,29.92,29.68,23,4,25,0.26
2013-3-11,49.9,41.6,32.7,48.7,40.0,30.7,98,94,89,29.79,29.55,19,5,21,0.09
2013-3-12,37.2,32.2,28.1,30.9,27.7,23.9,94,84,64,30.00,29.79,18,6,24,0.00
2013-3-13,31.2,27.0,24.4,24.5,18.7,14.2,90,71,52,30.34,30.00,21,6,22,0.01
2013-3-14,41.8,30.8,20.7,30.5,22.7,15.6,94,73,44,30.35,30.13,11,2,12,0.00
2013-3-15,47.9,36.5,29.0,40.4,33.9,27.9,97,91,67,30.13,29.74,11,1,11,0.24
2013-3-16,37.5,33.5,29.5,36.9,31.1,23.4,98,91,77,30.13,29.67,15,2,15,0.00
2013-3-17,38.7,32.1,28.2,26.3,23.7,21.4,81,71,58,30.23,30.05,18,4,24,0.00
2013-3-18,34.5,30.7,24.3,33.4,27.9,16.9,97,90,73,30.05,29.62,24,6,26,0.03
2013-3-19,35.5,26.7,19.3,18.7,15.7,12.7,83,64,43,30.09,29.81,29,10,29,0.00
2013-3-20,26.9,22.2,17.9,17.1,12.6,8.2,90,67,51,30.08,30.03,22,7,22,0.00
2013-3-21,31.8,23.9,17.5,19.0,16.2,13.4,88,73,53,30.07,30.00,16,4,17,0.04
2013-3-22,39.2,28.1,16.3,21.4,18.1,13.9,93,69,40,30.10,30.03,11,1,14,0.00
2013-3-23,41.7,30.7,21.6,28.2,23.7,19.6,95,76,53,30.16,30.03,11,1,11,0.00
2013-3-24,38.2,32.6,27.5,28.1,25.6,22.9,86,76,60,30.05,29.62,22,4,22,0.00
2013-3-25,36.0,32.6,28.3,31.1,28.1,25.1,94,84,72,30.04,29.65,14,4,19,0.02
2013-3-26,38.4,34.2,28.4,32.7,29.9,26.1,96,85,70,30.26,30.04,15,3,15,0.09
2013-3-27,42.6,35.1,27.2,31.0,25.8,20.5,93,70,46,30.33,30.25,13,3,14,0.01
2013-3-28,48.2,36.8,25.8,27.4,22.7,20.0,80,59,36,30.36,30.30,14,2,15,0.00
2013-3-29,52.2,38.8,26.8,28.6,23.2,19.8,90,57,32,30.34,30.25,13,1,13,0.00
2013-3-30,58.7,43.5,25.3,38.3,31.0,21.3,88,64,41,30.26,29.88,16,3,17,0.00
2013-3-31,59.7,48.4,37.9,43.9,37.3,28.1,96,68,40,29.88,29.68,21,6,23,0.00